{"data":{"norad_id":64782,"intl_designator":"2025-147AD","name":"STARLINK-34482","alt_names":[],"object_type":"PAYLOAD","status":"ACTIVE","operator":null,"country":"US","launch_date":"2025-07-08","launch_site_code":"AFETR","launch_vehicle":null,"mission":null,"orbit_class":"UNKNOWN","rcs_meters":null,"size_class":null,"mass_kg":null,"dimensions":null,"purposes":["comms"],"wikipedia_slug":null,"has_3d_model":false,"image_url":null,"decayed_at":null,"tle_current":{"epoch":"2026-05-25T00:07:31.250784Z","epoch_age_seconds":71650,"freshness":"FRESH","line1":"1 64782U 25147AD  26145.00522281  .00027763  00000+0  82957-3 0  9992","line2":"2 64782  53.1597 247.7230 0001061 101.9143 258.1979 15.34408653 50488","mean_motion":15.34408653,"eccentricity":0.0001061,"inclination_deg":53.1597,"raan_deg":247.723,"arg_perigee_deg":101.9143,"mean_anomaly_deg":258.1979,"bstar":0.00082957,"rev_number":5048,"period_min":93.847228845105,"perigee_km":461.95171136767,"apogee_km":463.40333220919,"semimajor_km":6840.8145217884,"source":"CELESTRAK","updated_at":"2026-05-25T13:38:20.561641Z"}}}